{"data":{"norad_id":57711,"epoch":"2026-05-25T02:39:55.175328Z","epoch_age_seconds":72184,"freshness":"FRESH","line1":"1 57711U 23129P   26145.11105527  .00000034  00000+0  10765-4 0  9997","line2":"2 57711  43.0058  46.0127 0001756 254.9529 105.1128 15.27578036152233","mean_motion":15.27578036,"eccentricity":0.0001756,"inclination_deg":43.0058,"raan_deg":46.0127,"arg_perigee_deg":254.9529,"mean_anomaly_deg":105.1128,"bstar":1.0765e-5,"rev_number":15223,"period_min":94.266869911974,"perigee_km":481.85015165734,"apogee_km":484.25980227965,"semimajor_km":6861.1919769685,"source":"CELESTRAK","updated_at":"2026-05-25T13:38:18.373268Z"}}